World > North America > United States > Michigan

Hourly Northwest, MI Regional Weather

Feedback E-mail the Weather

Quick WX

Northwest, MI Weather Maps

°F °C°F °C
Northwest Weather Map
UTC Time: 7/1/2022, 10:23
Your Time:

Northwest, MI Regional Weather

Expires:202207011100;;487875
ASUS43 KDTX 011010
RWRMI 
MICHIGAN HOURLY REGIONAL WEATHER ROUNDUP
NATIONAL WEATHER SERVICE DETROIT/PONTIAC MI
600 AM EDT FRI JUL 01 2022

NOTE: "FAIR" INDICATES FEW OR NO CLOUDS BELOW 12,000 FEET WITH NO
SIGNIFICANT WEATHER AND/OR OBSTRUCTION TO VISIBILITY.


MIZ047>049-052>055-059>063-066>070-074>076-081>083-011100-
SOUTHEAST LOWER MICHIGAN
  
CITY           SKY/WX    TMP DP  RH WIND       PRES   REMARKS
ADRIAN         PTCLDY    66  56  70 W3        29.96S                  
ALMA           CLOUDY    74  55  51 SW8       29.87F                  
ANN ARBOR      PTCLDY    59  53  80 SW3       29.94S                  
BAD AXE        MOCLDY    73  55  52 SW3       29.87S                  
CARO           MOCLDY    69  56  62 SW3       29.88S                  
DETROIT CITY   PTCLDY    76  55  48 SW8       29.93S                  
DETROIT        MOCLDY    68  57  68 S6        29.94S                  
FLINT          MOCLDY    72  56  57 SW8       29.90F                  
GROSSE ILE     PTCLDY    73  59  60 SW6       29.94R                  
HILLSDALE      CLOUDY    67  56  69 S5        29.96S                  
HOWELL         MOCLDY    71  54  54 S6        29.93R                  

CITY           SKY/WX    TMP DP  RH WIND       PRES   REMARKS
JACKSON        MOCLDY    69  56  62 SW7       29.94S                  
LAMBERTVILLE   CLEAR     72  59  62 CALM      29.95S                  
LANSING        MOCLDY    74  56  53 SW9       29.91S                  
LAPEER         MOCLDY    73  54  51 SW7       29.90F                  
MASON          MOCLDY    72  56  57 S5        29.92S                  
MONROE         PTCLDY    71  59  65 SW7       29.94R                  
MT. CLEMENS    MOCLDY    70  58  66 SW7       29.89S                  
PONTIAC        MOCLDY    71  53  52 CALM      29.93S                  
PORT HOPE        N/A     75  33  21 W5        29.85R                  
PORT HURON     MOCLDY    70  54  56 CALM      29.91S                  
TRI CITIES     CLOUDY    73  57  57 SW7       29.87S                  
MIDLAND        CLOUDY    71  58  64 CALM      29.87R                  
TROY           MOCLDY    72  47  41 SW6       29.94F                  
SAGINAW HB     CLOUDY    72  56  57 SW7       29.87F                  
$$

SKY/WX - Weather  TMP - Temperature  DP - Dew Point  RH - Humidity
WIND - Wind Direction/Speed PRES - Barometric Pressure VSB - Visibility
WCI - Wind Chill Index E13G22 Wind - East Wind 13 mph/Gusts of 22 mph

Trending Headlines

Northwest Radar Loop



Northwest Quick Facts


National Two Day Weather Forecast


E-mail the Northwest Weather Forecast

Voice your opinion or tell us about page issues...